Location: Helsinki
(60.1699°N, 24.9384°E)
Time: 23:33:25
(UTC+02:00)

Transit 4A - Pass Details

Date: 02 November 2020
Orbit: 862 x 982 km, 66.8° (Epoch: 25 November)

Event Time Altitude Azimuth Distance (km) Brightness Sun altitude
Rises 23:28:36 0° 313° (NW) 3,699 11.6 -44.5°
Reaches altitude 10° 23:31:29 10° 303° (WNW) 2,746 10.7 -44.6°
Enters shadow 23:31:57 12° 300° (WNW) 2,603 10.5 -44.6°
